Orbital Elements at Epoch 2459200.5 (2020-Dec-17.0) TDB
Reference: JPL 18 (heliocentric ecliptic J2000)
Element | Value | Uncertainty (1-sigma) | Units |
e | .03227180477912565 | 1.5486e-07 | |
a | 2.95015188008587 | 2.4304e-08 | au |
q | 2.854945154542968 | 4.6381e-07 | au |
i | 10.94583423263815 | 1.1658e-05 | deg |
node | 35.34692800115081 | 4.1778e-05 | deg |
peri | 308.9137325658618 | 0.00012552 | deg |
M | 30.09831242783344 | 0.00011576 | deg |
tp | 2459045.759272436537 (2020-Jul-15.25927244) | 0.00059601 | TDB |
period | 1850.82343258992 5.07 | 2.2871e-05 6.262e-08 | d yr |
n | .194508019328586 | 2.4036e-09 | deg/d |
Q | 3.045358605628772 | 2.5088e-08 | au |
|
| | Orbit Determination Parameters
Additional Information
|